Home > Time Zones > World Clock > Weather > Russia > Ufa > Past weeks

Flag for Russia Weather past 2 weeks in Ufa, Russia

Now
18 °F

Light snow. Overcast.


Feels Like: 0 °F
Forecast: 13 / 19 °F
Wind: 22 mph from Northwest

Location: Ufa

Current Time: Oct 24, 2014 at 11:09:50 PM

Latest Report: Oct 24, 2014 at 10:30 PM


Visibility: 3 mi

Pressure: 30.01 "Hg

Humidity: 86%

Dew point: 14 °F

Location of UfaLocation

Historic Weather in Ufa — Graph

°F

Ufa temperature yesterday

Maximum temperature yesterday: 32 °F (at 12:00 AM)
Minimum temperature yesterday: 14 °F (at 9:30 PM)
Average temperature yesterday: 21 °F

Past Weeks' High & Low Weather Summary

 TemperatureHumidityPressure
High55 °F (Oct 12, 2:00 PM)100% (Oct 11, 9:30 AM)30.48 "Hg (Oct 11, 9:30 AM)
Low12 °F (Oct 24, 7:30 AM)58% (Oct 23, 6:30 PM)29.36 "Hg (Oct 22, 12:30 PM)
Average37 °F88%29.82 "Hg
* Reported Oct 9 9:00 PM — Oct 24 9:30 PM, Ufa, Weather by CustomWeather, © 2014

Note: Actual official high and low records may vary slightly from our data, if they occured in-between our weather recording intervals... More about our weather records

Advertising

Ufa weather history for previous 24 hours

 ConditionsComfort  
Time TempWeatherWind HumidityBarometerVisibility
9:30 PM
Oct 24
18 °FLight snow. Overcast.15 mph86%30.01 "HgN/A
9:00 PM18 °FLight snow. Overcast.17 mph86%30.01 "HgN/A
8:30 PM18 °FLight snow. Overcast.17 mph86%30.01 "HgN/A
8:00 PM19 °FLight snow. Low clouds.17 mph86%29.98 "Hg2 mi
7:30 PM19 °FLight snow. Overcast.13 mph86%29.98 "Hg2 mi
7:00 PM19 °FLight snow. Low clouds.15 mph86%29.98 "Hg2 mi
6:30 PM19 °FLight snow. Low clouds.13 mph86%29.98 "Hg2 mi
6:00 PM19 °FLight snow. Low clouds.13 mph86%29.98 "Hg1 mi
5:30 PM19 °FLight snow. Low clouds.13 mph86%29.95 "Hg1 mi
5:00 PM19 °FLight snow. Low clouds.13 mph86%29.95 "Hg2 mi
4:30 PM19 °FLight snow. Overcast.13 mph79%29.95 "Hg2 mi
4:00 PM19 °FLight snow. Overcast.13 mph79%29.92 "Hg1 mi
3:30 PM19 °FLight snow. Partly sunny.15 mph79%29.92 "HgN/A
3:00 PM19 °FLight snow. Partly sunny.15 mph79%29.92 "Hg1 mi
2:30 PM19 °FLight snow. Partly sunny.15 mph73%29.92 "Hg2 mi
2:00 PM19 °FLight snow. Partly sunny.13 mph73%29.92 "Hg2 mi
1:30 PM18 °FLight snow. Partly sunny.13 mph79%29.89 "Hg2 mi
1:00 PM18 °FLight snow. Partly sunny.17 mph79%29.89 "HgN/A
12:30 PM18 °FLight snow. Low clouds.17 mph79%29.89 "Hg2 mi
12:00 PM16 °FLight snow. Low clouds.13 mph86%29.86 "Hg1 mi
11:30 AM16 °FSnow. Low clouds.13 mph86%29.86 "Hg1 mi
11:00 AM16 °FHeavy snow. Low clouds.10 mph86%29.86 "Hg1 mi
10:30 AM16 °FLight snow. Low clouds.8 mph86%29.86 "Hg1 mi
10:00 AM14 °FLight snow. Low clouds.8 mph92%29.83 "Hg2 mi
9:30 AM14 °FLight snow. Low clouds.8 mph85%29.83 "Hg2 mi
8:30 AM12 °FLight snow. Mostly cloudy.6 mph85%29.83 "Hg2 mi
8:00 AM12 °FLight snow. Mostly cloudy.8 mph85%29.83 "Hg3 mi
7:30 AM12 °FLight snow. Mostly cloudy.15 mph79%29.83 "Hg3 mi
7:00 AM14 °FLight snow. Mostly cloudy.13 mph73%29.80 "Hg3 mi
6:30 AM16 °FLight snow. Mostly cloudy.17 mph79%29.80 "Hg1 mi
6:00 AM14 °FLight snow. Overcast.13 mph92%29.80 "Hg1 mi
5:30 AM14 °FLight snow. Overcast.13 mph92%29.80 "Hg1 mi
5:00 AM16 °FLight snow. Overcast.15 mph86%29.80 "Hg3 mi
4:30 AM16 °FLight snow. Overcast.13 mph79%29.80 "Hg3 mi
4:00 AM16 °FLight snow. Overcast.13 mph79%29.80 "Hg3 mi
3:30 AM14 °FLight snow. Overcast.10 mph85%29.80 "Hg3 mi
2:30 AM14 °FLight snow. Overcast.13 mph85%29.80 "Hg1 mi
2:00 AM16 °FLight snow. Overcast.10 mph86%29.80 "Hg1 mi
1:30 AM16 °FLight snow. Overcast.10 mph79%29.80 "Hg3 mi
1:00 AM16 °FLight snow. Overcast.13 mph79%29.80 "Hg3 mi
12:30 AM16 °FLight snow. Overcast.10 mph79%29.80 "HgN/A
12:00 AM16 °FLight snow. Overcast.10 mph73%29.83 "HgN/A
11:30 PM
Oct 23
16 °FOvercast.10 mph73%29.83 "HgN/A
11:00 PM14 °FOvercast.10 mph79%29.83 "HgN/A
Weather by CustomWeather, © 2014

See weather overviewHow to use our weather pages